Погода в Буяге

Погода в Буяге : погода сейчас, прогноз погоды и архив. Всё, что Вы хотите узнать о погоде в Буяге!

Поиск расширенной информации на нашем сайте:

Полезная информация: Содержательный информационный сайт геологии Земли http://www.geologam.ru/

Другие новости

Новости СМИ2

Главная страница сайта

Новости сайта

03.07.2017

Напоминаем, что на нашем специализированном сайте Метеоцентр.Азия вы можете получить высокодетализированные автоматические прогнозы погоды по пунктам России, СНГ и мира в авиационном формате (включающие направление и скорость ветра, видимость, явления погоды, количество и форму облачности, нижнюю и верхнюю границу облачности).

Рекомендуем: Вшэ в праге высшая школа экономики прага.

Погода в Буяге - сегодня

Время (UTC), дата Ветер
(°,м/с) 
Видим.   Явления Облачность Т
(°С)
Тd
(°С)
f(%) Тe
(°С)
Pmin
(гПа)
dP
(гПа)
Po
(мм)
O2
(г/м3)
Тmin Tmax R s Состояние
почвы
09 15.04.18 тихо ()   20000 м    1/0 верхняя 
[Ci fib]
+9.9 -4.9 35 +10  1002.3  -1.8  727  283           
15 15.04.18 тихо ()   20000 м    4/0 верхняя 
[Ci fib]
-5.2 -8.1 80 -5  1003.3  -0.3  726  299           
18 15.04.18 тихо ()   20000 м    6/0 верхняя 
[Ci fib]
-8.3 -10.2 86 -8  1003.3  -0.4  726  303           
21 15.04.18 тихо ()   20000 м    10/0 верхняя 
[Ci fib]
-11.6 -12.9 90 -12  1002.6  -1.1  725  306           
03 16.04.18 230 (ЮЗ) 20000 м    10/0 верхняя 
[Cs]
+6.8 -7.9 34 +8  999.1  -0.6  724  286           
06 16.04.18 270 (З) 20000 м    10/0 верхняя 
[Sc|Cs]
+7.1 -8.3 32 +7  999.4  0.3  725  285           
09 16.04.18 270 (З) 20000 м    10/10 1000 м 
[Sc]
+3.6 -0.7 73 +2  1001.9  726  289           
15 16.04.18 270 (З) 20000 м  слаб. снег  10/0 средняя 
[As op]
-1.6 -2.7 92 -3  1007.4  730  296           
18 16.04.18 270 (З) 20000 м  слаб. снег  10/0 средняя 
[As op]
-2.4 -3.1 95 -3  1008.6  1.1  730  297           
03 17.04.18 320 (СЗ) 20000 м    3/3 600 м 
[Frnb]
+3.2 -8.6 42 +2  1007.5  -0.5  730  292           
06 17.04.18 320 (СЗ) 20000 м    8/8 1000 м 
[Sc]
+4.5 -10.3 33 +3  1007  -0.4  730  290           
09 17.04.18 340 (С) 20000 м    6/6 600 м кучево-дожд. 
[Cb cap]
+4 -12.6 29 +2  1007  -0.1  730  291           
15 17.04.18 тихо ()   20000 м    ясно 
-6.8 -8 91 -7  1008.9  0.3  730  303           
18 17.04.18 тихо ()   20000 м    ясно 
-8.2 -8.8 95 -8  1009.6  0.5  731  304           
21 17.04.18 тихо ()   20000 м    4/4 600 м 
[Cu Sc]
-5.1 -6.5 90 -5  1009.5  0.3  731  301           
03 18.04.18 230 (ЮЗ) 20000 м    3/3 600 м 
[Cu hum]
+5.6 -6.3 42 +5  1005.9  -1.4  729  289           
06 18.04.18 230 (ЮЗ) 20000 м    3/0 верхняя 
[Cu hum|Ci sp]
+10.8 -5.8 31 +10  1003.6  -1.7  728  283           
09 18.04.18 тихо ()   20000 м    3/0 верхняя 
[Ci fib]
+10.3 -6.8 29 +10  1002.5  -1.1  727  283           
12 18.04.18 тихо ()   20000 м    ясно 
+3.9 -1 70 +4  1003.5  0.2  727  289    +11.4       
15 18.04.18 тихо ()   20000 м    ясно 
-4.2 -6.1 87 -4  1004  -0.4  727  298           
18 18.04.18 тихо ()   20000 м    ясно 
-6.5 -8.1 88 -7  1004.1  -0.3  727  301           
21 18.04.18 тихо ()   20000 м    4/0 верхняя 
[Ci fib]
-8.1 -9.1 92 -8  1003.5  -0.8  726  302           
03 19.04.18 320 (СЗ) 4000 м  снег  10/0 средняя 
[As op]
+1.1 -2.1 79 -1  1006.8  4.5  729  293           
06 19.04.18 270 (З) 20000 м  {снег}  10/0 средняя 
[Sc|As op]
+0.1 -1 92 -1  1008.7  1.8  731  294           
09 19.04.18 270 (З) 20000 м    10/3 1000 м средняя 
[Sc|As trans]
+3.3 -10.5 36 +1  1009  0.7  731  292           
Время (UTC), дата Ветер
(°,м/с) 
Видим.   Явления Облачность Т
(°С)
Тd
(°С)
f(%) Тe
(°С)
Pmin
(гПа)
dP
(гПа)
Po
(мм)
O2
(г/м3)
Тmin Tmax R s Состояние
почвы

Для получения пояснительной информации подведите курсор к названию столбца.

ПОГОДА в Буяге - архив

Всё, что Вы хотите узнать о погоде в Буяге - удобно и подробно!

Выберите нужную дату (начиная с 1 января 2015* года) и нажмите кнопку "Найти".
Будут отображены архивные сводки погоды по пункту Буяга, начиная с указанной даты.


Отображать данные в формате CSV (для использования в таблицах Excel)


Внимание! Наш архив погоды предназначен исключительно для личного некоммерческого использования в познавательных целях. Если Вам необходимы официальные справки о состоянии погоды (для производственных, юридических, коммерческих и т.п. целей), обращайтесь в органы Росгидромета.

*Примечание: данная дата относится к архиву по метеостанциям СССР (Россия, СНГ, Балтия).
Архив по метеостанциям Зарубежной Европы и Азии (кроме Китая) хранится 10 дней, по другим регионам земного шара (Китай, Африка, Америка, Австралия, Океания) - 1 день.

Буяга - район местоположения метеостанции


Название, широта, долгота, высота метеостанции:
Буяга 59.6°ш. 127.2°д. 278 м над ур. моря [Российская Федерация]

Дополнительная информация

В oтличие oт бoльшинства пoгoдных сайтoв мы публикуем пoдрoбную метеoинфoрмацию в детальнoм прoфессиoнальнoм фoрмате.

Характеристики температуры и влажнoсти вoздуха измеряются на высoте 2 м в тени вдали oт зданий и деревьев.
Скoрoсть ветра измеряется на высoте 10 м (на урoвне рoста челoвека скoрoсть ветра ниже в 1.5-2 раза). Если метеoстанция нахoдится в гoрoде или в лесу, тo скoрoсть ветра занижена на 2-4 м/с пo сравнению с oткрытым местoм. Скoрoсть ветра над акватoриями крупных рек и oзёр, а также на вершинах хoлмoв на 2-5 м/с выше, чем в oбычных услoвиях.
Атмoсфернoе давление в разных тoчках местнoсти мoжет значительнo oтличаться oт давления на метеoстанции, в зависимoсти oт услoвий рельефа (при пoдъёме на 10 м давление пoнижается примернo на 1 мм рт.ст.).